STARLINK-4397 (53205 NORAD) Tracking and Keplerian Element Data

This shows tracking and keplerian element data for the satellite.

Feedback or suggestion? Click here.




ElementValue
Catalog53205
NameSTARLINK-4397
Epoch Orbit1028
Epoch Day269.75868971
Epoch Year2022
RAAN329.5889
Inclination97.6527
Eccentricity0.0002147
Argument of Perigee121.735
Mean Anonmoly238.4084
Mean Motion15.01260742
Decay Rate1.26E-06
L11 53205U 22084S 22269.75868971 .00000126 00000+0 14388-4 0 9999
L22 53205 97.6527 329.5889 0002147 121.7350 238.4084 15.01260742 10288

Live tracking and technical data element details for STARLINK-4397 (NORAD 53205). STARLINK-4397 can be tracked NOW for your location showing map with azimuth and elevation plus other details from your city location.

Track the satellite on the map from your city or location and see movement details for azimuth, elevation, latitude, longitude, range, height, and movement on the map or in text.







IsCatalogInMostPopularTable: catalog: 53205, numindb: 5
Update: records affected: 1



GetName: 53205 STARLINK-4397

Hit Count: updated at: Thu, 29 Sep 2022 12:19:56 GMT